Location: Unspecified
(43.4680°N, 87.1740°E)
Time: 05:02:28
(UTC+00:00)

CZ-4C R/B - Pass Details

Date: 17 April 2021
Orbit: 611 x 1390 km, 63.4° (Epoch: 16 May)

Event Time Altitude Azimuth Distance (km) Brightness Sun altitude
Rises 21:43:51 0° 321° (NW) 3,893 5.6 -17.3°
Reaches altitude 10° 21:46:23 10° 318° (NW) 3,035 5.0 -16.9°
Maximum altitude 21:53:43 64° 239° (WSW) 1,402 3.0 -15.8°
Drops below altitude 10° 22:02:04 10° 161° (SSE) 3,428 5.2 -14.5°
Sets 22:05:05 0° 158° (SSE) 4,424 5.8 -14.0°
